Total_Precipitation_Accumulation
0.01 0.01 0.01 0.00 0.00 0.00 0.00 0.01 0.01 0.01 0.02 0.03 0.03 0.03 0.03 0.02 0.02 0.04 0.05 0.05 0.05 0.04 0.04 0.04 0.04 0.04 0.05 0.05 0.07 0.09 0.11 0.17 0.19 0.10 0.05 0.05 0.10 0.17 0.24 0.27 0.27 0.25 0.22
0.02 0.01 0.00 0.00 0.01 0.01 0.01 0.01 0.02 0.02 0.03 0.03 0.03 0.03 0.02 0.02 0.03 0.04 0.04 0.03 0.03 0.03 0.03 0.04 0.04 0.04 0.05 0.05 0.06 0.08 0.10 0.15 0.22 0.18 0.09 0.05 0.07 0.12 0.17 0.18 0.18 0.19 0.20
0.01 0.00 0.00 0.00 0.01 0.01 0.02 0.02 0.02 0.03 0.03 0.04 0.03 0.03 0.02 0.03 0.04 0.03 0.03 0.02 0.03 0.03 0.04 0.04 0.05 0.06 0.05 0.05 0.07 0.09 0.11 0.15 0.20 0.21 0.11 0.07 0.10 0.16 0.22 0.23 0.20 0.23 0.22
0.00 0.00 0.00 0.01 0.01 0.02 0.02 0.03 0.03 0.03 0.03 0.02 0.02 0.02 0.02 0.03 0.02 0.02 0.01 0.02 0.02 0.03 0.04 0.06 0.07 0.07 0.07 0.09 0.10 0.12 0.15 0.16 0.16 0.16 0.11 0.07 0.10 0.16 0.20 0.27 0.27 0.23 0.22
0.00 0.01 0.01 0.01 0.01 0.02 0.03 0.03 0.02 0.02 0.01 0.01 0.01 0.01 0.02 0.02 0.01 0.00 0.00 0.01 0.01 0.02 0.03 0.06 0.07 0.07 0.11 0.12 0.11 0.12 0.16 0.17 0.17 0.17 0.13 0.10 0.10 0.16 0.20 0.24 0.24 0.27 0.24
0.01 0.01 0.01 0.01 0.01 0.02 0.02 0.01 0.01 0.01 0.01 0.01 0.01 0.01 0.01 0.01 0.00 0.00 0.00 0.00 0.01 0.02 0.04 0.05 0.03 0.03 0.03 0.04 0.07 0.10 0.14 0.17 0.20 0.21 0.18 0.14 0.11 0.14 0.20 0.26 0.26 0.27 0.23
0.01 0.01 0.01 0.00 0.01 0.01 0.00 0.00 0.01 0.01 0.01 0.01 0.01 0.01 0.01 0.01 0.00 0.00 0.00 0.00 0.01 0.03 0.05 0.03 0.02 0.01 0.02 0.03 0.05 0.08 0.12 0.17 0.23 0.27 0.24 0.16 0.14 0.16 0.25 0.31 0.26 0.25 0.26
0.01 0.00 0.00 0.00 0.00 0.00 0.00 0.01 0.01 0.01 0.01 0.01 0.01 0.01 0.01 0.01 0.00 0.00 0.00 0.00 0.01 0.03 0.03 0.03 0.03 0.02 0.03 0.05 0.07 0.12 0.14 0.16 0.23 0.28 0.27 0.23 0.23 0.22 0.24 0.25 0.22 0.23 0.20
0.00 0.00 0.00 0.00 0.00 0.00 0.01 0.01 0.01 0.01 0.01 0.01 0.01 0.01 0.01 0.01 0.00 0.00 0.00 0.01 0.01 0.01 0.02 0.02 0.04 0.03 0.05 0.08 0.11 0.16 0.19 0.25 0.42 0.57 0.54 0.46 0.43 0.36 0.24 0.17 0.17 0.20 0.21
0.00 0.00 0.00 0.00 0.00 0.01 0.01 0.01 0.01 0.01 0.01 0.00 0.01 0.01 0.01 0.01 0.00 0.00 0.01 0.01 0.01 0.01 0.01 0.01 0.03 0.05 0.06 0.09 0.14 0.20 0.27 0.38 0.59 0.77 0.65 0.52 0.42 0.35 0.29 0.19 0.20 0.28 0.26
0.00 0.00 0.00 0.00 0.00 0.00 0.00 0.01 0.01 0.01 0.00 0.00 0.01 0.01 0.01 0.01 0.01 0.00 0.01 0.02 0.03 0.03 0.03 0.03 0.05 0.10 0.10 0.11 0.19 0.29 0.43 0.53 0.67 0.79 0.61 0.41 0.31 0.23 0.22 0.24 0.24 0.21 0.14
0.00 0.00 0.00 0.00 0.00 0.00 0.00 0.00 0.00 0.00 0.00 0.00 0.00 0.01 0.01 0.01 0.01 0.00 0.00 0.01 0.03 0.04 0.07 0.09 0.13 0.17 0.14 0.18 0.29 0.45 0.59 0.67 0.66 0.65 0.48 0.30 0.20 0.19 0.22 0.20 0.14 0.08 0.05
0.00 0.00 0.00 0.00 0.00 0.00 0.00 0.00 0.00 0.00 0.00 0.00 0.00 0.01 0.01 0.01 0.01 0.01 0.01 0.01 0.03 0.05 0.10 0.19 0.23 0.21 0.25 0.33 0.50 0.64 0.69 0.67 0.62 0.49 0.36 0.27 0.16 0.13 0.14 0.13 0.09 0.05 0.05
0.00 0.00 0.00 0.00 0.00 0.00 0.00 0.00 0.00 0.00 0.00 0.01 0.01 0.02 0.02 0.02 0.02 0.03 0.03 0.03 0.05 0.05 0.08 0.18 0.26 0.29 0.40 0.54 0.64 0.68 0.69 0.71 0.61 0.43 0.33 0.25 0.16 0.13 0.11 0.10 0.08 0.08 0.09
0.00 0.00 0.00 0.00 0.00 0.00 0.00 0.00 0.00 0.01 0.01 0.01 0.02 0.03 0.04 0.05 0.04 0.04 0.05 0.07 0.08 0.09 0.10 0.14 0.18 0.26 0.40 0.53 0.62 0.64 0.63 0.64 0.58 0.43 0.34 0.26 0.20 0.15 0.14 0.11 0.10 0.09 0.11
0.00 0.00 0.00 0.00 0.00 0.00 0.00 0.00 0.00 0.00 0.00 0.01 0.02 0.03 0.04 0.05 0.04 0.03 0.04 0.06 0.09 0.12 0.13 0.20 0.28 0.35 0.44 0.53 0.60 0.64 0.61 0.54 0.48 0.43 0.37 0.30 0.24 0.19 0.17 0.15 0.12 0.11 0.12
0.00 0.00 0.00 0.00 0.00 0.00 0.00 0.00 0.01 0.01 0.01 0.01 0.01 0.02 0.02 0.03 0.03 0.02 0.02 0.04 0.07 0.12 0.16 0.27 0.38 0.45 0.49 0.53 0.54 0.53 0.55 0.52 0.44 0.38 0.34 0.31 0.26 0.20 0.18 0.16 0.14 0.12 0.11
0.00 0.00 0.00 0.00 0.00 0.00 0.00 0.01 0.01 0.02 0.02 0.02 0.01 0.01 0.01 0.03 0.04 0.03 0.03 0.03 0.05 0.10 0.21 0.34 0.43 0.47 0.50 0.52 0.50 0.46 0.47 0.47 0.40 0.32 0.27 0.25 0.24 0.20 0.17 0.15 0.11 0.08 0.06
0.00 0.00 0.00 0.00 0.00 0.00 0.00 0.01 0.01 0.01 0.02 0.02 0.02 0.01 0.02 0.03 0.04 0.05 0.06 0.05 0.08 0.15 0.24 0.34 0.41 0.44 0.43 0.44 0.44 0.42 0.41 0.39 0.35 0.29 0.26 0.24 0.22 0.19 0.15 0.11 0.07 0.04 0.03
0.00 0.00 0.00 0.00 0.00 0.00 0.00 0.00 0.01 0.01 0.02 0.03 0.03 0.03 0.03 0.05 0.06 0.07 0.07 0.07 0.10 0.15 0.22 0.31 0.38 0.39 0.36 0.33 0.31 0.30 0.30 0.29 0.27 0.25 0.23 0.22 0.20 0.17 0.13 0.09 0.06 0.04 0.02
0.00 0.00 0.00 0.00 0.00 0.00 0.00 0.00 0.01 0.01 0.02 0.02 0.03 0.04 0.07 0.07 0.10 0.12 0.13 0.15 0.16 0.18 0.20 0.24 0.29 0.32 0.31 0.28 0.24 0.21 0.21 0.22 0.21 0.19 0.17 0.16 0.15 0.13 0.10 0.07 0.05 0.03 0.01
0.00 0.00 0.00 0.00 0.00 0.00 0.00 0.00 0.00 0.01 0.01 0.02 0.02 0.03 0.08 0.08 0.10 0.14 0.18 0.20 0.22 0.22 0.20 0.20 0.21 0.23 0.24 0.23 0.22 0.19 0.18 0.18 0.17 0.15 0.14 0.14 0.12 0.10 0.07 0.05 0.03 0.02 0.01
0.00 0.00 0.00 0.00 0.00 0.00 0.00 0.00 0.00 0.00 0.01 0.01 0.02 0.03 0.05 0.08 0.12 0.18 0.22 0.23 0.23 0.24 0.21 0.19 0.21 0.24 0.23 0.20 0.18 0.18 0.17 0.16 0.15 0.14 0.14 0.14 0.12 0.09 0.06 0.04 0.02 0.01 0.01
0.00 0.00 0.00 0.00 0.00 0.00 0.00 0.00 0.00 0.00 0.00 0.00 0.01 0.02 0.04 0.07 0.11 0.15 0.20 0.23 0.24 0.26 0.26 0.27 0.28 0.29 0.25 0.21 0.18 0.17 0.17 0.17 0.16 0.17 0.15 0.12 0.09 0.07 0.05 0.03 0.02 0.01 0.01
0.00 0.00 0.00 0.00 0.00 0.00 0.00 0.00 0.00 0.00 0.00 0.00 0.01 0.02 0.03 0.04 0.06 0.09 0.12 0.16 0.19 0.22 0.25 0.28 0.28 0.27 0.24 0.20 0.15 0.13 0.15 0.15 0.13 0.14 0.15 0.10 0.08 0.07 0.05 0.03 0.02 0.01 0.01
0.00 0.00 0.00 0.00 0.00 0.00 0.00 0.00 0.00 0.00 0.00 0.00 0.00 0.01 0.02 0.03 0.05 0.08 0.09 0.10 0.11 0.14 0.19 0.24 0.27 0.20 0.14 0.11 0.10 0.09 0.08 0.06 0.05 0.06 0.12 0.11 0.08 0.07 0.05 0.04 0.02 0.01 0.01